SCP
1 1 1 1 1 0 0 0 0 0 0 0 0 0 0 0 0 0 0 0 0 0 0 0 0 0 0 0 1 1 1 1 1 1 1 0 0 0
1 1 1 1 1 0 0 0 0 0 0 0 0 0 0 0 0 0 0 0 0 0 0 0 0 0 0 0 1 1 1 1 1 1 1 0 0 0
1 1 1 1 1 0 0 0 0 0 0 0 0 0 0 0 0 0 0 1 0 0 0 0 0 0 0 0 1 1 0 0 0 0 0 0 0 0
1 1 0 0 1 1 0 0 0 0 0 0 1 1 0 0 0 0 0 0 1 1 0 0 0 0 0 0 0 0 0 0 0 0 0 0 0 0
0 1 0 0 1 1 0 0 0 0 0 0 0 1 0 0 0 0 0 0 0 1 1 1 0 0 0 0 0 0 0 0 0 0 0 0 0 0
0 1 1 1 1 1 0 0 0 0 0 0 0 0 0 0 0 0 0 0 0 0 1 1 0 0 0 0 0 0 0 0 0 0 0 0 0 0
0 0 1 0 0 0 0 0 0 0 0 0 0 0 0 0 0 0 0 0 0 0 0 0 0 0 0 0 0 0 0 0 0 0 0 0 0 0
0 0 0 0 0 0 0 0 0 0 0 0 0 0 0 0 0 0 0 0 0 0 0 0 0 0 0 0 0 0 0 0 0 0 0 0 0 0
0 0 0 0 0 0 0 0 0 0 0 0 0 0 0 0 0 0 0 0 0 0 0 0 0 0 0 0 0 0 0 0 0 0 0 0 0 0
0 1 1 0 0 0 0 0 0 0 0 0 0 0 0 0 0 0 0 0 0 0 0 0 0 0 0 0 0 0 0 0 0 0 0 0 0 0
0 0 0 0 0 0 0 0 0 0 0 0 0 0 0 0 0 0 0 0 0 0 0 0 0 0 0 0 0 0 0 0 0 0 0 0 0 0
0 0 0 0 0 0 0 0 0 0 0 0 0 0 0 0 0 0 0 0 0 0 0 0 0 0 0 0 0 0 0 0 0 0 0 0 0 0
0 0 0 0 0 0 0 0 0 0 0 0 0 0 0 0 0 0 0 0 0 0 0 0 0 0 0 0 0 0 0 0 0 0 0 0 0 0
0 0 0 0 0 0 0 0 0 0 0 0 0 0 0 0 0 0 0 0 0 0 0 0 0 0 0 0 0 0 0 0 0 0 0 0 0 0
0 0 0 0 0 0 0 0 0 0 0 0 0 0 0 0 0 0 0 0 0 0 0 0 0 0 0 0 0 0 0 0 0 0 0 0 0 0
0 0 0 0 0 0 0 0 0 0 0 0 0 0 0 0 0 0 0 0 0 0 0 0 0 0 0 0 0 0 0 0 0 0 0 0 0 0
0 0 0 0 0 0 0 0 0 0 0 0 0 0 0 0 0 0 0 0 0 0 0 0 0 0 0 0 0 0 0 0 0 0 0 0 0 0
0 0 0 0 0 0 0 0 0 0 0 0 0 0 0 0 0 0 0 0 0 0 0 0 0 0 0 0 0 0 0 0 0 0 0 0 0 0
0 0 0 0 0 0 0 0 0 0 0 0 0 0 0 0 0 0 0 0 0 0 0 0 0 0 0 0 0 0 0 0 0 0 0 0 0 0
0 0 0 0 0 0 0 0 0 0 0 0 0 0 0 0 0 0 0 0 0 0 0 0 0 0 0 0 0 0 0 0 0 0 0 0 0 0
0 0 0 0 0 0 0 0 0 0 0 0 0 0 0 0 0 0 0 0 0 0 0 0 0 0 0 0 0 0 0 0 0 0 0 0 0 0
0 0 0 0 0 0 0 0 0 0 0 0 0 0 0 0 0 0 0 0 0 0 0 0 0 0 0 0 0 0 0 0 0 0 0 0 0 0
0 0 0 0 0 0 0 0 0 0 0 0 0 0 0 0 0 0 0 0 0 0 0 0 0 0 0 0 0 0 0 0 0 0 0 0 0 0
Wind_Speed
6 7 6 5 5 5 5 6 7 7 9 7 5 5 5 6 6 7 8 10 12 13 13 12 12 11 11 11 11 11 10 9 8 8 8 8 7 7
5 7 7 5 5 5 5 5 6 7 8 5 5 5 6 5 7 8 8 9 11 13 13 12 12 11 11 10 10 10 8 7 7 7 7 7 6 6
6 6 7 7 5 5 5 5 5 6 8 6 4 5 6 7 6 6 7 7 7 11 12 12 12 11 11 10 10 10 9 8 8 7 7 7 6 5
6 6 7 6 7 6 5 6 5 6 7 8 5 5 7 7 6 7 6 6 7 9 12 13 12 12 11 11 10 10 9 8 8 7 7 6 5 5
6 6 7 7 7 5 6 6 6 5 5 6 6 5 5 4 5 5 6 5 5 6 9 10 11 10 10 10 10 9 9 8 8 7 6 6 5 4
5 5 6 6 7 7 6 7 6 6 5 5 5 5 4 4 4 4 4 4 4 4 5 6 7 8 9 10 9 9 8 8 8 7 6 5 5 4
6 6 6 6 7 6 6 6 6 6 5 5 5 5 5 4 5 4 5 4 5 4 3 4 4 5 6 8 9 8 9 8 8 7 7 6 5 4
6 6 6 7 6 7 7 7 7 7 7 6 6 7 7 7 5 5 4 4 5 3 4 4 4 4 4 4 7 9 9 9 8 8 7 7 6 5
5 5 4 5 6 7 7 8 8 8 8 7 7 7 7 7 6 7 6 6 5 3 3 4 3 4 3 4 8 9 9 9 8 7 7 7 6 5
4 5 5 5 5 6 7 7 7 7 7 7 7 7 7 7 7 7 6 3 2 1 3 3 3 3 2 3 7 8 8 8 7 7 7 7 6 5
4 5 5 5 6 7 7 7 7 6 6 7 8 8 8 8 6 3 3 3 2 2 2 2 2 1 1 2 3 6 7 7 7 7 6 6 5 4
4 5 5 6 8 7 6 6 7 6 5 5 5 5 5 5 5 5 5 4 2 2 3 2 2 2 2 1 1 2 3 5 6 5 5 5 5 3
4 4 4 7 8 7 7 6 6 6 4 4 3 3 3 2 2 2 2 3 2 2 3 3 2 2 2 2 1 1 2 2 3 3 4 4 4 3
4 4 5 7 7 7 6 6 6 4 2 2 2 2 2 2 1 1 1 1 1 1 3 3 2 3 3 2 2 2 1 1 2 2 2 3 3 4
4 7 7 7 6 4 5 5 4 2 2 2 2 2 2 2 1 1 2 3 4 3 2 0 1 2 2 2 3 3 2 2 2 2 2 2 2 2
4 5 5 4 4 4 3 2 2 2 2 2 2 2 2 2 1 1 0 1 2 2 3 3 2 2 1 2 3 3 3 3 3 3 2 2 2 2
5 3 2 2 2 2 2 2 2 2 1 1 1 1 1 1 1 1 1 0 1 1 1 2 3 4 4 2 2 3 3 3 3 3 3 2 2 2
3 2 2 2 2 2 2 3 2 2 2 2 1 1 1 0 0 1 0 1 2 2 2 2 2 2 3 3 3 2 3 2 3 3 3 2 2 2
2 2 2 2 2 2 2 2 3 2 2 1 1 1 1 0 0 0 0 1 1 2 2 1 1 2 3 2 2 1 2 3 3 3 2 2 1 1
2 2 2 2 2 2 2 2 2 2 2 1 1 1 1 0 1 1 1 1 2 2 2 1 1 0 1 2 2 2 1 2 3 3 2 1 1 1
3 3 2 2 2 2 2 2 2 2 2 2 1 1 1 0 1 1 1 2 2 2 2 1 1 2 2 3 3 3 2 1 2 2 2 2 1 1
3 3 3 2 2 2 2 2 2 2 2 1 1 1 1 1 1 1 1 2 1 2 2 2 2 2 1 2 3 4 3 3 2 2 1 0 1 2
3 3 3 2 2 2 2 2 2 2 1 1 1 1 1 1 1 1 2 2 2 3 3 3 2 2 2 2 3 3 4 3 2 2 1 0 2 1
Wind_Direction
225 225 229 232 232 235 235 230 231 246 249 248 248 239 244 245 234 240 247 241 240 244 248 249 252 250 246 247 252 254 248 244 244 246 249 258 268 269
230 231 233 236 239 241 241 240 238 242 252 248 256 256 247 250 242 247 249 246 241 241 243 243 243 242 239 238 242 240 233 231 231 236 244 256 258 261
231 233 234 237 238 236 242 246 247 248 255 264 271 265 251 248 249 251 250 248 244 235 237 239 237 236 234 232 231 228 225 224 223 229 239 245 248 254
236 236 238 239 244 243 241 246 250 255 259 265 269 264 258 248 247 250 254 253 250 238 234 236 235 233 229 223 219 222 220 218 218 221 230 236 238 245
245 241 241 239 242 246 249 248 249 256 257 260 271 271 271 257 255 257 255 257 261 250 236 234 231 228 221 216 215 218 215 211 212 215 221 231 234 240
255 254 252 246 247 248 248 251 255 257 259 257 262 269 276 269 257 252 258 259 257 255 243 238 229 223 222 219 215 214 210 207 210 215 218 222 224 235
255 254 254 254 256 256 257 255 257 256 257 258 258 265 264 257 250 247 250 256 261 247 240 238 228 224 218 217 212 211 210 208 210 215 218 218 214 215
258 257 253 245 251 257 261 262 260 256 258 256 257 255 256 254 249 245 242 248 253 226 228 239 228 225 222 217 205 204 206 206 210 214 215 213 207 205
265 266 265 263 261 258 261 262 257 258 256 254 258 258 257 255 245 243 241 245 255 221 216 234 223 230 228 215 200 201 202 206 208 209 209 202 195 193
289 287 283 275 270 275 269 264 263 262 262 258 259 263 264 259 245 241 243 255 302 251 219 225 215 229 236 217 194 197 199 196 196 199 199 189 182 184
294 292 290 290 294 294 275 268 271 275 273 274 278 278 274 266 251 230 215 215 254 243 221 214 190 202 226 213 191 192 192 190 189 189 189 183 176 177
292 288 289 299 305 300 279 271 270 280 289 295 294 290 278 253 235 225 213 211 221 222 195 178 163 150 160 176 184 180 179 181 180 181 180 178 174 177
292 291 292 306 305 302 295 277 283 294 279 279 288 292 292 272 259 267 251 216 206 217 182 167 161 165 155 151 176 183 172 161 170 174 175 173 171 176
287 290 296 305 306 302 299 304 302 300 281 282 285 291 296 295 308 325 339 8 7 207 175 169 165 172 155 154 163 158 155 150 157 158 161 170 177 186
289 292 297 300 299 293 309 314 300 284 275 272 277 295 306 305 317 15 42 61 53 47 70 88 147 154 156 151 148 149 150 157 157 155 159 169 173 173
297 294 295 299 301 313 317 312 302 286 270 263 282 303 321 320 320 336 99 104 78 44 41 53 70 120 121 119 143 151 149 155 161 161 158 162 164 167
312 298 300 305 315 329 327 325 327 328 325 316 304 307 323 329 335 3 29 64 109 126 73 58 64 68 67 86 128 136 136 134 148 150 153 155 163 167
322 311 315 320 322 327 328 330 332 337 332 322 302 292 287 291 335 13 35 94 115 115 106 107 111 101 92 57 39 129 129 130 137 147 154 156 161 158
341 332 331 330 329 332 333 329 330 334 332 316 300 279 251 236 202 165 120 112 113 112 108 115 126 139 143 129 81 36 140 136 141 147 160 168 172 160
345 335 333 332 328 327 329 329 331 332 332 326 325 313 275 195 169 165 154 140 136 125 116 104 94 103 136 126 119 110 140 146 149 146 138 131 101 78
340 334 331 330 327 326 330 332 331 331 338 340 340 355 360 66 116 126 123 131 130 133 136 119 64 78 88 103 109 107 100 90 85 119 136 145 155 165
332 329 327 324 326 327 331 334 336 337 343 350 353 7 9 24 93 109 120 127 123 116 106 99 107 101 94 120 119 117 113 106 97 87 49 297 183 186
324 322 318 319 325 327 325 327 329 328 334 338 346 357 8 27 59 86 102 107 109 114 113 111 107 97 92 106 116 116 117 121 121 115 94 144 200 238